Погода в Варшавке

Россия / Челябинская область     52°50′44″N   60°20′16″E
темп.,
°C
ветер,
м/с
пор.,
м/с
влажн.,
%
обл.,
%
осадки,
мм/ч
давл.,
гПа
погр.,
м
14 апреля, ср
ср1423:00+4юв35950 0.0 103973
02:00+2юв23940 0.0 103833
05:00+1ююв22940 0.0 103811
08:00+3вюв12871 0.0 103775
11:00+8вюв33665 0.0 1036321
14:00+11юв33515 0.0 1034488
17:00+13вюв23450 0.0 1032494
20:00+9ююв22621 0.0 103112
15 апреля, чт
чт1523:00+6ю23715 0.0 103118
02:00+5ю22655 0.0 103010
05:00+4юз11635 0.0 103010
08:00+6юз11639 0.0 102930
11:00+11ю234740 0.0 1028300
14:00+15ю233834 0.0 1025540
17:00+16ю23365 0.0 1023645
20:00+11ю22525 0.0 102210
16 апреля, пт
пт1623:00+9ююз22615 0.0 102212
02:00+7зюз226672 0.0 102012
05:00+6з226811 0.0 102010
08:00+8сз226738 0.0 101955
11:00+13ссв224882 0.0 1018373
14:00+15св224176 0.0 1017880
17:00+16всв33414 0.0 10171351
20:00+12вюв225817 0.0 101713
17 апреля, сб
сб1723:00+9св6108746 0.1 1019397
02:00+6св6988100 0.0 1020409
05:00+5св4792100 0.0 1020351
08:00+5св5690100 0.0 1021379
11:00+5всв566898 0.9 1022754
14:00+5ссв3388100 0.4 1021476
17:00+5с3587100 0.4 1021358
20:00+5сз22855 0.0 102020
18 апреля, вс
вс1823:00+3ссз338336 0.0 102133
02:00+2с36795 0.0 102093
05:00+1с348271 0.0 102160
08:00+3с597096 0.0 1021479
11:00+6ссз67465 0.0 10201443
14:00+8сз6940100 0.0 10192306
17:00+3с111384100 0.6 10171009
20:00+4с7114458 0.0 1023722